| time (UTC) | temp F | wind direction | speed MPH | gust MPH | rain 1hr in | rain 24hr in | rain mn in | humidity % | barometer mb |
| 20260502225004 | 73 | 227 | 5.0 | 13.0 | 0.00 | 0.00 | 0.00 | 1009.5 | |
| 20260502224502 | 73 | 217 | 5.0 | 13.0 | 0.00 | 0.00 | 0.00 | 1009.5 | |
| 20260502224003 | 73 | 159 | 3.0 | 11.0 | 0.00 | 0.00 | 0.00 | 1009.9 | |
| 20260502223502 | 73 | 199 | 7.0 | 11.0 | 0.00 | 0.00 | 0.00 | 1010.2 | |
| 20260502223003 | 73 | 190 | 5.0 | 11.0 | 0.00 | 0.00 | 0.00 | 1010.2 | |
| 20260502222504 | 73 | 215 | 5.0 | 14.0 | 0.00 | 0.00 | 0.00 | 1009.9 | |
| 20260502222002 | 72 | 197 | 7.0 | 14.0 | 0.00 | 0.00 | 0.00 | 1009.9 | |
| 20260502221503 | 71 | 185 | 7.0 | 12.0 | 0.00 | 0.00 | 0.00 | 1010.5 | |
| 20260502221023 | 71 | 217 | 6.0 | 12.0 | 0.00 | 0.00 | 0.00 | 1010.9 | |
| 20260502220502 | 71 | 222 | 6.0 | 12.0 | 0.00 | 0.00 | 0.00 | 1010.9 | |
| 20260502220003 | 71 | 226 | 7.0 | 13.0 | 0.00 | 0.00 | 0.00 | 1010.9 | |
| 20260502215502 | 71 | 197 | 6.0 | 13.0 | 0.00 | 0.00 | 0.00 | 1010.9 | |
| 20260502215002 | 71 | 211 | 6.0 | 13.0 | 0.00 | 0.00 | 0.00 | 1010.9 | |
| 20260502214524 | 71 | 225 | 9.0 | 13.0 | 0.00 | 0.00 | 0.00 | 1011.2 | |
| 20260502214002 | 70 | 204 | 7.0 | 13.0 | 0.00 | 0.00 | 0.00 | 1010.9 | |
| 20260502213503 | 70 | 238 | 9.0 | 13.0 | 0.00 | 0.00 | 0.00 | 1011.2 | |
| 20260502213002 | 70 | 229 | 6.0 | 13.0 | 0.00 | 0.00 | 0.00 | 1011.5 | |
| 20260502212503 | 71 | 193 | 5.0 | 13.0 | 0.00 | 0.00 | 0.00 | 1011.2 | |
| 20260502212002 | 71 | 204 | 6.0 | 13.0 | 0.00 | 0.00 | 0.00 | 1011.5 | |
| 20260502211502 | 70 | 210 | 7.0 | 13.0 | 0.00 | 0.00 | 0.00 | 1011.2 | |
| 20260502211003 | 70 | 202 | 6.0 | 17.0 | 0.00 | 0.00 | 0.00 | 1010.9 | |
| 20260502210502 | 69 | 241 | 10.0 | 17.0 | 0.00 | 0.00 | 0.00 | 1011.2 | |
| 20260502210003 | 70 | 220 | 8.0 | 12.0 | 0.00 | 0.00 | 0.00 | 1010.9 | |
| 20260502205505 | 70 | 246 | 6.0 | 10.0 | 0.00 | 0.00 | 0.00 | 1010.9 | |
| 20260502205002 | 70 | 224 | 7.0 | 11.0 | 0.00 | 0.00 | 0.00 | 1011.2 | |
| 20260502204502 | 69 | 222 | 5.0 | 12.0 | 0.00 | 0.00 | 0.00 | 1010.9 | |
| 20260502204003 | 69 | 220 | 6.0 | 12.0 | 0.00 | 0.00 | 0.00 | 1011.2 | |
| 20260502203503 | 69 | 227 | 4.0 | 10.0 | 0.00 | 0.00 | 0.00 | 1011.2 | |
| 20260502203002 | 69 | 242 | 5.0 | 10.0 | 0.00 | 0.00 | 0.00 | 1011.5 | |
| 20260502202524 | 70 | 254 | 7.0 | 10.0 | 0.00 | 0.00 | 0.00 | 1011.9 | |
| 20260502202024 | 71 | 210 | 3.0 | 10.0 | 0.00 | 0.00 | 0.00 | 1012.2 | |
| 20260502201502 | 71 | 211 | 3.0 | 10.0 | 0.00 | 0.00 | 0.00 | 1012.2 | |
| 20260502201025 | 70 | 184 | 4.0 | 10.0 | 0.00 | 0.00 | 0.00 | 1011.5 | |
| 20260502200502 | 69 | 193 | 4.0 | 11.0 | 0.00 | 0.00 | 0.00 | 1012.2 | |
| 20260502200002 | 68 | 213 | 5.0 | 11.0 | 0.00 | 0.00 | 0.00 | 1011.9 | |
| 20260502195524 | 68 | 233 | 5.0 | 9.0 | 0.00 | 0.00 | 0.00 | 1012.2 | |
| 20260502195003 | 69 | 222 | 3.0 | 7.0 | 0.00 | 0.00 | 0.00 | 1012.9 | |
| 20260502194503 | 67 | 195 | 3.0 | 7.0 | 0.00 | 0.00 | 0.00 | 1012.2 | |
| 20260502194002 | 66 | 277 | 4.0 | 7.0 | 0.00 | 0.00 | 0.00 | 1011.9 | |
| 20260502193524 | 66 | 271 | 4.0 | 7.0 | 0.00 | 0.00 | 0.00 | 1011.9 | |
| 20260502193002 | 68 | 199 | 3.0 | 9.0 | 0.00 | 0.00 | 0.00 | 1011.9 | |
| 20260502192502 | 67 | 229 | 6.0 | 9.0 | 0.00 | 0.00 | 0.00 | 1012.2 | |
| 20260502192003 | 66 | 205 | 4.0 | 7.0 | 0.00 | 0.00 | 0.00 | 1011.9 | |
| 20260502191502 | 66 | 234 | 5.0 | 7.0 | 0.00 | 0.00 | 0.00 | 1011.9 | |
| 20260502191003 | 66 | 217 | 3.0 | 6.0 | 0.00 | 0.00 | 0.00 | 1012.2 | |
| 20260502190524 | 66 | 173 | 2.0 | 6.0 | 0.00 | 0.00 | 0.00 | 1012.6 | |
| 20260502190023 | 66 | 218 | 4.0 | 10.0 | 0.00 | 0.00 | 0.00 | 1012.2 | |
| 20260502185503 | 65 | 220 | 5.0 | 10.0 | 0.00 | 0.00 | 0.00 | 1012.6 | |
| 20260502185025 | 64 | 240 | 3.0 | 8.0 | 0.00 | 0.00 | 0.00 | 1012.6 | |
| 20260502184502 | 64 | 257 | 5.0 | 8.0 | 0.00 | 0.00 | 0.00 | 1012.2 | |
| 20260502184003 | 64 | 230 | 4.0 | 8.0 | 0.00 | 0.00 | 0.00 | 1012.2 | |
| 20260502183502 | 64 | 262 | 3.0 | 7.0 | 0.00 | 0.00 | 0.00 | 1012.2 | |
| 20260502183007 | 63 | 293 | 2.0 | 5.0 | 0.00 | 0.00 | 0.00 | 1012.6 | |
| 20260502182502 | 63 | 248 | 3.0 | 5.0 | 0.00 | 0.00 | 0.00 | 1012.9 | |
| 20260502182002 | 63 | 253 | 2.0 | 3.0 | 0.00 | 0.00 | 0.00 | 1012.9 | |
| 20260502181502 | 62 | 291 | 1.0 | 4.0 | 0.00 | 0.00 | 0.00 | 1012.9 | |
| 20260502181002 | 63 | 297 | 2.0 | 4.0 | 0.00 | 0.00 | 0.00 | 1012.9 | |
| 20260502180503 | 63 | 243 | 1.0 | 3.0 | 0.00 | 0.00 | 0.00 | 1013.2 | |
| 20260502164002 | 61 | 169 | 2.0 | 3.0 | 0.00 | 0.00 | 0.00 | 1013.9 | |
| 20260502163502 | 61 | 179 | 2.0 | 4.0 | 0.00 | 0.00 | 0.00 | 1013.9 | |
| 20260502163024 | 61 | 204 | 2.0 | 4.0 | 0.00 | 0.00 | 0.00 | 1014.3 | |
| 20260502162524 | 61 | 175 | 2.0 | 3.0 | 0.00 | 0.00 | 0.00 | 1013.6 | |
| 20260502162002 | 61 | 178 | 0.0 | 3.0 | 0.00 | 0.00 | 0.00 | 1013.6 | |
| 20260502161502 | 60 | 229 | 2.0 | 4.0 | 0.00 | 0.00 | 0.00 | 1013.2 | |
| 20260502161002 | 60 | 200 | 3.0 | 5.0 | 0.00 | 0.00 | 0.00 | 1013.6 | |
| 20260502160503 | 60 | 198 | 3.0 | 5.0 | 0.00 | 0.00 | 0.00 | 1014.3 | |
| 20260502152003 | 59 | 181 | 2.0 | 4.0 | 0.00 | 0.00 | 0.00 | 1013.9 | |
| 20260502151502 | 59 | 135 | 2.0 | 2.0 | 0.00 | 0.00 | 0.00 | 1013.2 | |
| 20260502151002 | 59 | 68 | 0.0 | 2.0 | 0.00 | 0.00 | 0.00 | 1012.9 | |
| 20260502150504 | 59 | 113 | 0.0 | 3.0 | 0.00 | 0.00 | 0.00 | 1012.9 | |
| 20260502130502 | 58 | 262 | 4.0 | 8.0 | 0.00 | 0.00 | 0.00 | 1012.9 | |
| 20260502123503 | 58 | 329 | 1.0 | 5.0 | 0.00 | 0.00 | 0.00 | 1012.6 | |
| 20260502123004 | 58 | 303 | 2.0 | 5.0 | 0.00 | 0.00 | 0.00 | 1012.6 | |
| 20260502122503 | 58 | 298 | 2.0 | 4.0 | 0.00 | 0.00 | 0.00 | 1012.6 | |
| 20260502122025 | 58 | 295 | 1.0 | 4.0 | 0.00 | 0.00 | 0.00 | 1012.6 | |
| 20260502121502 | 58 | 285 | 3.0 | 5.0 | 0.00 | 0.00 | 0.00 | 1012.9 | |
| 20260502121004 | 58 | 262 | 3.0 | 5.0 | 0.00 | 0.00 | 0.00 | 1012.9 | |
| 20260502120503 | 59 | 255 | 3.0 | 6.0 | 0.00 | 0.00 | 0.00 | 1012.9 | |
| 20260502115502 | 59 | 211 | 3.0 | 5.0 | 0.00 | 0.00 | 0.00 | 1012.6 | |
| 20260502115002 | 59 | 219 | 1.0 | 3.0 | 0.00 | 0.00 | 0.00 | 1012.6 | |
| 20260502114523 | 59 | 289 | 2.0 | 3.0 | 0.00 | 0.00 | 0.00 | 1012.6 | |
| 20260502114002 | 59 | 270 | 0.0 | 2.0 | 0.00 | 0.00 | 0.00 | 1012.6 | |
| 20260502113503 | 59 | 285 | 1.0 | 5.0 | 0.00 | 0.00 | 0.00 | 1012.2 | |
| 20260502113004 | 59 | 139 | 1.0 | 5.0 | 0.00 | 0.00 | 0.00 | 1012.2 | |
| 20260502112504 | 59 | 196 | 2.0 | 5.0 | 0.00 | 0.00 | 0.00 | 1012.2 | |
| 20260502112002 | 59 | 265 | 3.0 | 5.0 | 0.00 | 0.00 | 0.00 | 1012.6 | |
| 20260502111524 | 59 | 233 | 3.0 | 4.0 | 0.00 | 0.00 | 0.00 | 1012.9 | |
| 20260502111023 | 59 | 243 | 2.0 | 4.0 | 0.00 | 0.00 | 0.00 | 1012.9 | |
| 20260502110502 | 58 | 259 | 3.0 | 4.0 | 0.00 | 0.00 | 0.00 | 1011.9 | |
| 20260502110024 | 58 | 280 | 3.0 | 4.0 | 0.00 | 0.00 | 0.00 | 1011.9 | |
| 20260502105502 | 58 | 263 | 2.0 | 4.0 | 0.00 | 0.00 | 0.00 | 1011.9 | |
| 20260502105003 | 58 | 282 | 2.0 | 4.0 | 0.00 | 0.00 | 0.00 | 1012.2 | |
| 20260502104502 | 58 | 290 | 2.0 | 5.0 | 0.00 | 0.00 | 0.00 | 1012.2 | |
| 20260502104024 | 58 | 286 | 2.0 | 5.0 | 0.00 | 0.00 | 0.00 | 1012.2 | |
| 20260502103502 | 58 | 273 | 3.0 | 5.0 | 0.00 | 0.00 | 0.00 | 1012.2 | |
| 20260502103003 | 59 | 279 | 3.0 | 5.0 | 0.00 | 0.00 | 0.00 | 1012.2 | |
| 20260502102503 | 58 | 273 | 3.0 | 5.0 | 0.00 | 0.00 | 0.00 | 1011.9 | |
| 20260502102006 | 58 | 285 | 2.0 | 4.0 | 0.00 | 0.00 | 0.00 | 1012.2 | |
| 20260502101504 | 58 | 305 | 2.0 | 4.0 | 0.00 | 0.00 | 0.00 | 1011.9 | |
| 20260502101003 | 58 | 270 | 2.0 | 3.0 | 0.00 | 0.00 | 0.00 | 1012.2 | |
| 20260502100504 | 58 | 267 | 1.0 | 4.0 | 0.00 | 0.00 | 0.00 | 1011.9 | |
| 20260502091502 | 58 | 274 | 2.0 | 4.0 | 0.00 | 0.00 | 0.00 | 1012.2 | |
| 20260502091003 | 58 | 287 | 3.0 | 4.0 | 0.00 | 0.00 | 0.00 | 1012.6 | |
| 20260502090502 | 58 | 289 | 2.0 | 3.0 | 0.00 | 0.00 | 0.00 | 1012.2 | |
| 20260502071503 | 59 | 290 | 2.0 | 4.0 | 0.00 | 0.00 | 0.00 | 1013.6 | |
| 20260502071002 | 59 | 279 | 2.0 | 4.0 | 0.00 | 0.00 | 0.00 | 1013.6 | |
| 20260502070503 | 59 | 286 | 2.0 | 4.0 | 0.00 | 0.00 | 0.00 | 1013.6 | |
| 20260502070002 | 59 | 284 | 2.0 | 4.0 | 0.00 | 0.00 | 0.00 | 1013.2 | |
| 20260502065502 | 59 | 290 | 2.0 | 4.0 | 0.00 | 0.00 | 0.00 | 1013.2 | |
| 20260502065002 | 60 | 281 | 2.0 | 3.0 | 0.00 | 0.00 | 0.00 | 1013.6 | |
| 20260502064524 | 60 | 283 | 2.0 | 3.0 | 0.00 | 0.00 | 0.00 | 1012.9 | |
| 20260502064003 | 60 | 294 | 2.0 | 3.0 | 0.00 | 0.00 | 0.00 | 1013.2 | |
| 20260502063524 | 60 | 281 | 2.0 | 2.0 | 0.00 | 0.00 | 0.00 | 1013.2 | |
| 20260502063002 | 60 | 303 | 2.0 | 3.0 | 0.00 | 0.00 | 0.00 | 1013.2 | |
| 20260502062503 | 60 | 287 | 2.0 | 3.0 | 0.00 | 0.00 | 0.00 | 1013.2 | |
| 20260502062004 | 60 | 284 | 2.0 | 3.0 | 0.00 | 0.00 | 0.00 | 1013.2 | |
| 20260502061525 | 60 | 278 | 2.0 | 4.0 | 0.00 | 0.00 | 0.00 | 1013.2 | |
| 20260502061024 | 60 | 289 | 2.0 | 5.0 | 0.00 | 0.00 | 0.00 | 1012.9 | |
| 20260502060524 | 60 | 278 | 3.0 | 5.0 | 0.00 | 0.00 | 0.00 | 1012.9 | |
| 20260502060003 | 60 | 292 | 2.0 | 3.0 | 0.00 | 0.00 | 0.00 | 1012.6 | |
| 20260502055503 | 60 | 296 | 2.0 | 5.0 | 0.00 | 0.00 | 0.00 | 1012.9 | |
| 20260502055003 | 60 | 295 | 2.0 | 5.0 | 0.00 | 0.00 | 0.00 | 1013.2 | |
| 20260502054523 | 60 | 312 | 2.0 | 3.0 | 0.00 | 0.00 | 0.00 | 1013.2 | |
| 20260502054003 | 60 | 303 | 2.0 | 4.0 | 0.00 | 0.00 | 0.00 | 1012.9 | |
| 20260502053503 | 60 | 285 | 2.0 | 4.0 | 0.00 | 0.00 | 0.00 | 1013.6 | |
| 20260502053003 | 60 | 293 | 2.0 | 4.0 | 0.00 | 0.00 | 0.00 | 1013.6 | |
| 20260502052503 | 60 | 306 | 2.0 | 5.0 | 0.00 | 0.00 | 0.00 | 1013.6 | |
| 20260502052023 | 60 | 281 | 3.0 | 5.0 | 0.00 | 0.00 | 0.00 | 1013.6 | |
| 20260502051502 | 60 | 290 | 2.0 | 5.0 | 0.00 | 0.00 | 0.00 | 1012.9 | |
| 20260502051003 | 60 | 295 | 2.0 | 4.0 | 0.00 | 0.00 | 0.00 | 1013.2 | |
| 20260502050502 | 60 | 285 | 2.0 | 4.0 | 0.00 | 0.00 | 0.00 | 1012.9 | |
| 20260502050004 | 61 | 293 | 2.0 | 5.0 | 0.00 | 0.00 | 0.00 | 1013.2 | |
| 20260502045504 | 60 | 303 | 3.0 | 5.0 | 0.00 | 0.00 | 0.00 | 1012.9 | |
| 20260502045003 | 60 | 293 | 3.0 | 6.0 | 0.00 | 0.00 | 0.00 | 1013.2 | |
| 20260502044525 | 60 | 287 | 3.0 | 6.0 | 0.00 | 0.00 | 0.00 | 1013.2 | |
| 20260502044003 | 60 | 291 | 3.0 | 6.0 | 0.00 | 0.00 | 0.00 | 1012.6 | |
| 20260502043503 | 61 | 307 | 2.0 | 6.0 | 0.00 | 0.00 | 0.00 | 1012.6 | |
| 20260502043002 | 61 | 309 | 4.0 | 6.0 | 0.00 | 0.00 | 0.00 | 1012.6 | |
| 20260502042504 | 61 | 289 | 3.0 | 7.0 | 0.00 | 0.00 | 0.00 | 1012.9 | |
| 20260502042024 | 61 | 281 | 3.0 | 8.0 | 0.00 | 0.00 | 0.00 | 1012.6 | |
| 20260502041503 | 61 | 281 | 4.0 | 8.0 | 0.00 | 0.00 | 0.00 | 1012.9 | |
| 20260502041003 | 61 | 303 | 3.0 | 6.0 | 0.00 | 0.00 | 0.00 | 1012.6 | |
| 20260502040503 | 61 | 286 | 4.0 | 6.0 | 0.00 | 0.00 | 0.00 | 1012.6 | |
| 20260502040003 | 61 | 285 | 3.0 | 6.0 | 0.00 | 0.00 | 0.00 | 1012.6 | |
| 20260502035503 | 61 | 295 | 4.0 | 7.0 | 0.00 | 0.00 | 0.00 | 1012.9 | |
| 20260502035002 | 62 | 285 | 5.0 | 7.0 | 0.00 | 0.00 | 0.00 | 1012.9 | |
| 20260502034503 | 62 | 282 | 4.0 | 8.0 | 0.00 | 0.00 | 0.00 | 1012.6 | |
| 20260502034002 | 62 | 285 | 5.0 | 9.0 | 0.00 | 0.00 | 0.00 | 1011.9 | |
| 20260502033502 | 62 | 296 | 4.0 | 9.0 | 0.00 | 0.00 | 0.00 | 1012.2 | |
| 20260502033003 | 62 | 273 | 4.0 | 9.0 | 0.00 | 0.00 | 0.00 | 1011.9 | |
| 20260502032525 | 62 | 269 | 5.0 | 10.0 | 0.00 | 0.00 | 0.00 | 1011.9 | |
| 20260502032002 | 63 | 268 | 5.0 | 10.0 | 0.00 | 0.00 | 0.00 | 1011.9 | |
| 20260502031503 | 63 | 258 | 6.0 | 9.0 | 0.00 | 0.00 | 0.00 | 1012.2 | |
| 20260502031003 | 63 | 277 | 3.0 | 10.0 | 0.00 | 0.00 | 0.00 | 1012.2 | |
| 20260502030502 | 63 | 257 | 5.0 | 10.0 | 0.00 | 0.00 | 0.00 | 1012.2 | |
| 20260502030002 | 63 | 275 | 5.0 | 10.0 | 0.00 | 0.00 | 0.00 | 1012.2 | |
| 20260502025502 | 63 | 253 | 7.0 | 11.0 | 0.00 | 0.00 | 0.00 | 1011.9 | |
| 20260502025004 | 64 | 263 | 6.0 | 12.0 | 0.00 | 0.00 | 0.00 | 1012.2 | |
| 20260502024503 | 64 | 274 | 7.0 | 12.0 | 0.00 | 0.00 | 0.00 | 1011.9 | |
| 20260502024002 | 64 | 272 | 7.0 | 12.0 | 0.00 | 0.00 | 0.00 | 1011.5 | |
| 20260502023502 | 65 | 265 | 6.0 | 11.0 | 0.00 | 0.00 | 0.00 | 1011.9 | |
| 20260502023025 | 65 | 265 | 6.0 | 12.0 | 0.00 | 0.00 | 0.00 | 1011.5 | |
| 20260502022524 | 65 | 274 | 7.0 | 12.0 | 0.00 | 0.00 | 0.00 | 1011.5 | |
| 20260502022024 | 65 | 265 | 6.0 | 15.0 | 0.00 | 0.00 | 0.00 | 1011.9 | |
| 20260502021504 | 65 | 269 | 6.0 | 15.0 | 0.00 | 0.00 | 0.00 | 1011.5 | |
| 20260502021004 | 66 | 283 | 6.0 | 12.0 | 0.00 | 0.00 | 0.00 | 1011.2 | |
| 20260502020524 | 67 | 280 | 6.0 | 11.0 | 0.00 | 0.00 | 0.00 | 1011.2 | |
| 20260502020002 | 67 | 281 | 8.0 | 11.0 | 0.00 | 0.00 | 0.00 | 1010.5 | |
| 20260502015523 | 68 | 261 | 6.0 | 12.0 | 0.00 | 0.00 | 0.00 | 1010.5 | |
| 20260502015002 | 68 | 284 | 6.0 | 12.0 | 0.00 | 0.00 | 0.00 | 1010.5 | |
| 20260502014503 | 68 | 281 | 6.0 | 11.0 | 0.00 | 0.00 | 0.00 | 1010.9 | |
| 20260502014004 | 69 | 278 | 7.0 | 11.0 | 0.00 | 0.00 | 0.00 | 1010.9 | |
| 20260502013502 | 69 | 271 | 5.0 | 10.0 | 0.00 | 0.00 | 0.00 | 1011.5 | |
| 20260502013002 | 69 | 279 | 6.0 | 10.0 | 0.00 | 0.00 | 0.00 | 1011.2 | |
| 20260502012503 | 69 | 278 | 6.0 | 10.0 | 0.00 | 0.00 | 0.00 | 1011.2 | |
| 20260502012004 | 70 | 281 | 6.0 | 11.0 | 0.00 | 0.00 | 0.00 | 1010.9 | |
| 20260502011503 | 70 | 284 | 7.0 | 11.0 | 0.00 | 0.00 | 0.00 | 1010.5 | |
| 20260502011002 | 71 | 263 | 5.0 | 10.0 | 0.00 | 0.00 | 0.00 | 1010.5 | |
| 20260502010503 | 71 | 284 | 6.0 | 10.0 | 0.00 | 0.00 | 0.00 | 1010.9 | |
| 20260502010003 | 71 | 277 | 5.0 | 11.0 | 0.00 | 0.00 | 0.00 | 1010.9 | |
| 20260502005502 | 71 | 286 | 6.0 | 12.0 | 0.00 | 0.00 | 0.00 | 1011.2 | |
| 20260502005003 | 72 | 290 | 5.0 | 12.0 | 0.00 | 0.00 | 0.00 | 1011.2 | |
| 20260502004503 | 73 | 249 | 6.0 | 11.0 | 0.00 | 0.00 | 0.00 | 1010.9 | |
| 20260502004003 | 72 | 255 | 7.0 | 11.0 | 0.00 | 0.00 | 0.00 | 1011.2 | |
| 20260502003502 | 73 | 293 | 6.0 | 10.0 | 0.00 | 0.00 | 0.00 | 1010.9 | |
| 20260502003024 | 75 | 224 | 4.0 | 10.0 | 0.00 | 0.00 | 0.00 | 1010.5 | |
| 20260502002503 | 76 | 183 | 4.0 | 10.0 | 0.00 | 0.00 | 0.00 | 1010.5 | |
| 20260502002002 | 76 | 187 | 5.0 | 11.0 | 0.00 | 0.00 | 0.00 | 1010.5 | |
| 20260502001524 | 75 | 179 | 7.0 | 11.0 | 0.00 | 0.00 | 0.00 | 1010.5 | |
| 20260502001002 | 74 | 187 | 3.0 | 11.0 | 0.00 | 0.00 | 0.00 | 1010.9 | |
| 20260502000502 | 73 | 201 | 5.0 | 13.0 | 0.00 | 0.00 | 0.00 | 1010.5 | |
| 20260502000003 | 74 | 203 | 6.0 | 13.0 | 0.00 | 0.00 | 0.00 | 1010.9 | |
| 20260501235503 | 73 | 205 | 4.0 | 13.0 | 0.00 | 0.00 | 0.00 | 1011.2 | |
| 20260501235024 | 73 | 203 | 6.0 | 12.0 | 0.00 | 0.00 | 0.00 | 1011.5 | |
| 20260501234502 | 73 | 209 | 6.0 | 14.0 | 0.00 | 0.00 | 0.00 | 1011.5 | |
| 20260501234003 | 73 | 210 | 8.0 | 15.0 | 0.00 | 0.00 | 0.00 | 1010.9 | |
| 20260501233504 | 73 | 213 | 9.0 | 15.0 | 0.00 | 0.00 | 0.00 | 1010.5 | |
| 20260501233024 | 73 | 228 | 7.0 | 13.0 | 0.00 | 0.00 | 0.00 | 1011.2 | |
| 20260501232502 | 73 | 208 | 7.0 | 12.0 | 0.00 | 0.00 | 0.00 | 1011.2 | |
| 20260501232003 | 73 | 225 | 6.0 | 16.0 | 0.00 | 0.00 | 0.00 | 1011.2 | |
| 20260501231503 | 74 | 214 | 8.0 | 16.0 | 0.00 | 0.00 | 0.00 | 1011.5 | |
| 20260501231003 | 74 | 206 | 7.0 | 13.0 | 0.00 | 0.00 | 0.00 | 1010.9 | |
| 20260501230503 | 74 | 203 | 6.0 | 12.0 | 0.00 | 0.00 | 0.00 | 1010.5 | |
| 20260501230024 | 73 | 192 | 6.0 | 13.0 | 0.00 | 0.00 | 0.00 | 1010.5 | |
| 20260501225503 | 73 | 229 | 9.0 | 13.0 | 0.00 | 0.00 | 0.00 | 1010.9 |